Time,TemperatureF,DewpointF,PressureIn,WindDirection,WindDirectionDegrees,WindSpeedMPH,WindSpeedGustMPH,Humidity,HourlyPrecipIn,Conditions,Clouds,dailyrainin,SoftwareType,DateUTC
2013-09-05 00:04:00,67.1,45.0,30.11,ESE,112,0.0,0.0,45,0.00,,,0.00,WUHU21623XXSP,2013-09-05 07:04:00,
2013-09-05 00:09:00,66.9,44.8,30.12,South,180,0.0,0.0,45,0.00,,,0.00,WUHU21623XXSP,2013-09-05 07:09:00,
2013-09-05 00:15:00,66.9,44.8,30.12,SSE,157,0.0,0.0,45,0.00,,,0.00,WUHU21623XXSP,2013-09-05 07:15:00,
2013-09-05 00:22:00,67.1,45.0,30.12,SSE,157,0.0,0.0,45,0.00,,,0.00,WUHU21623XXSP,2013-09-05 07:22:00,
2013-09-05 00:27:00,67.3,45.1,30.12,South,180,0.0,0.0,45,0.00,,,0.00,WUHU21623XXSP,2013-09-05 07:27:00,
2013-09-05 00:32:00,67.3,45.1,30.12,South,180,0.0,0.0,45,0.00,,,0.00,WUHU21623XXSP,2013-09-05 07:32:00,
2013-09-05 00:37:00,67.6,44.9,30.12,South,180,0.0,0.0,44,0.00,,,0.00,WUHU21623XXSP,2013-09-05 07:37:00,
2013-09-05 00:43:00,67.6,44.9,30.12,SSE,157,2.9,2.9,44,0.00,,,0.00,WUHU21623XXSP,2013-09-05 07:43:00,
2013-09-05 00:54:00,67.6,44.9,30.11,SSE,157,0.0,0.0,44,0.00,,,0.00,WUHU21623XXSP,2013-09-05 07:54:00,
2013-09-05 00:59:00,67.6,44.9,30.11,SSE,157,0.0,0.0,44,0.00,,,0.00,WUHU21623XXSP,2013-09-05 07:59:00,
2013-09-05 01:04:00,67.6,44.9,30.12,SE,135,0.0,0.0,44,0.00,,,0.00,WUHU21623XXSP,2013-09-05 08:04:00,
2013-09-05 01:09:00,67.6,44.9,30.11,SSE,157,0.0,0.0,44,0.00,,,0.00,WUHU21623XXSP,2013-09-05 08:09:00,
2013-09-05 01:14:00,67.5,44.7,30.11,SSE,157,0.0,0.0,44,0.00,,,0.00,WUHU21623XXSP,2013-09-05 08:14:00,
2013-09-05 01:22:00,67.3,44.5,30.12,SSE,157,0.0,0.0,44,0.00,,,0.00,WUHU21623XXSP,2013-09-05 08:22:00,
2013-09-05 01:35:00,66.7,43.4,30.12,SSE,157,0.0,0.0,43,0.00,,,0.00,WUHU21623XXSP,2013-09-05 08:35:00,
2013-09-05 01:47:00,66.6,43.9,30.11,SE,135,0.0,0.0,44,0.00,,,0.00,WUHU21623XXSP,2013-09-05 08:47:00,
2013-09-05 01:54:00,66.7,44.0,30.11,SSE,157,0.0,0.0,44,0.00,,,0.00,WUHU21623XXSP,2013-09-05 08:54:00,
2013-09-05 01:59:00,66.7,44.0,30.12,SSE,157,0.0,0.0,44,0.00,,,0.00,WUHU21623XXSP,2013-09-05 08:59:00,
2013-09-05 02:04:00,66.7,44.0,30.11,SE,135,3.8,3.8,44,0.00,,,0.00,WUHU21623XXSP,2013-09-05 09:04:00,
2013-09-05 02:09:00,66.9,44.2,30.11,SSW,202,0.0,3.8,44,0.00,,,0.00,WUHU21623XXSP,2013-09-05 09:09:00,
2013-09-05 02:15:00,67.1,43.8,30.12,SSE,157,0.0,0.0,43,0.00,,,0.00,WUHU21623XXSP,2013-09-05 09:15:00,
2013-09-05 02:22:00,66.9,43.6,30.12,SE,135,0.0,0.0,43,0.00,,,0.00,WUHU21623XXSP,2013-09-05 09:22:00,
2013-09-05 02:27:00,66.7,43.4,30.11,South,180,0.0,0.0,43,0.00,,,0.00,WUHU21623XXSP,2013-09-05 09:27:00,
2013-09-05 02:35:00,66.6,43.3,30.11,SE,135,0.0,0.0,43,0.00,,,0.00,WUHU21623XXSP,2013-09-05 09:35:00,
2013-09-05 02:40:00,66.4,43.1,30.11,ESE,112,0.0,0.0,43,0.00,,,0.00,WUHU21623XXSP,2013-09-05 09:40:00,
2013-09-05 02:45:00,66.0,42.8,30.11,SE,135,0.0,0.0,43,0.00,,,0.00,WUHU21623XXSP,2013-09-05 09:45:00,
2013-09-05 02:54:00,65.7,42.5,30.11,South,180,0.0,0.0,43,0.00,,,0.00,WUHU21623XXSP,2013-09-05 09:54:00,
2013-09-05 02:59:00,65.7,42.5,30.11,South,180,0.0,0.0,43,0.00,,,0.00,WUHU21623XXSP,2013-09-05 09:59:00,
2013-09-05 03:04:00,65.5,42.3,30.11,East,90,0.0,0.0,43,0.00,,,0.00,WUHU21623XXSP,2013-09-05 10:04:00,
2013-09-05 03:09:00,65.3,42.3,30.11,SSE,157,0.0,0.0,43,0.00,,,0.00,WUHU21623XXSP,2013-09-05 10:09:00,
2013-09-05 03:14:00,65.3,42.1,30.11,South,180,0.0,0.0,43,0.00,,,0.00,WUHU21623XXSP,2013-09-05 10:14:00,
2013-09-05 03:19:00,64.9,41.2,30.10,NE,45,0.0,0.0,42,0.00,,,0.00,WUHU21623XXSP,2013-09-05 10:19:00,
2013-09-05 03:26:00,64.6,41.5,30.10,ENE,67,0.0,0.0,43,0.00,,,0.00,WUHU21623XXSP,2013-09-05 10:26:00,
2013-09-05 03:31:00,64.6,41.5,30.10,ENE,67,0.0,0.0,43,0.00,,,0.00,WUHU21623XXSP,2013-09-05 10:31:00,
2013-09-05 03:39:00,64.0,41.0,30.10,SSE,157,0.0,0.0,43,0.00,,,0.00,WUHU21623XXSP,2013-09-05 10:39:00,
2013-09-05 03:47:00,63.5,40.5,30.10,ENE,67,0.0,0.0,43,0.00,,,0.00,WUHU21623XXSP,2013-09-05 10:47:00,
2013-09-05 03:56:00,63.1,40.2,30.10,SSE,157,0.0,0.0,43,0.00,,,0.00,WUHU21623XXSP,2013-09-05 10:56:00,
2013-09-05 04:01:00,62.8,40.4,30.10,North,0,0.0,0.0,44,0.00,,,0.00,WUHU21623XXSP,2013-09-05 11:01:00,
2013-09-05 04:06:00,62.4,40.1,30.10,SE,135,0.0,0.0,44,0.00,,,0.00,WUHU21623XXSP,2013-09-05 11:06:00,
2013-09-05 04:13:00,61.9,39.6,30.10,NE,45,0.0,0.0,44,0.00,,,0.00,WUHU21623XXSP,2013-09-05 11:13:00,
2013-09-05 04:18:00,61.5,39.3,30.10,East,90,0.0,0.0,44,0.00,,,0.00,WUHU21623XXSP,2013-09-05 11:18:00,
2013-09-05 04:23:00,61.3,39.3,30.10,SSE,157,0.0,0.0,45,0.00,,,0.00,WUHU21623XXSP,2013-09-05 11:23:00,
2013-09-05 04:28:00,61.2,39.5,30.10,ESE,112,0.0,0.0,45,0.00,,,0.00,WUHU21623XXSP,2013-09-05 11:28:00,
2013-09-05 04:33:00,61.0,39.4,30.10,SE,135,0.0,0.0,45,0.00,,,0.00,WUHU21623XXSP,2013-09-05 11:33:00,
2013-09-05 04:43:00,60.6,39.0,30.10,SE,135,0.0,0.0,45,0.00,,,0.00,WUHU21623XXSP,2013-09-05 11:43:00,
2013-09-05 04:49:00,60.6,39.6,30.10,East,90,0.0,0.0,46,0.00,,,0.00,WUHU21623XXSP,2013-09-05 11:49:00,
2013-09-05 04:54:00,60.4,39.5,30.10,SSE,157,0.0,0.0,46,0.00,,,0.00,WUHU21623XXSP,2013-09-05 11:54:00,
2013-09-05 04:59:00,60.1,39.1,30.10,ESE,112,0.0,0.0,46,0.00,,,0.00,WUHU21623XXSP,2013-09-05 11:59:00,
2013-09-05 05:04:00,59.7,38.8,30.10,SSE,157,0.0,0.0,46,0.00,,,0.00,WUHU21623XXSP,2013-09-05 12:04:00,
2013-09-05 05:13:00,59.5,38.6,30.10,North,0,0.0,0.0,46,0.00,,,0.00,WUHU21623XXSP,2013-09-05 12:13:00,
2013-09-05 05:19:00,59.2,38.9,30.10,North,0,0.0,0.0,47,0.00,,,0.00,WUHU21623XXSP,2013-09-05 12:19:00,
2013-09-05 05:30:00,58.8,38.6,30.10,North,0,0.0,0.0,47,0.00,,,0.00,WUHU21623XXSP,2013-09-05 12:30:00,
2013-09-05 05:45:00,58.1,37.9,30.10,West,270,0.0,0.0,47,0.00,,,0.00,WUHU21623XXSP,2013-09-05 12:45:00,
2013-09-05 05:56:00,57.6,38.0,30.10,SSE,157,0.0,0.0,48,0.00,,,0.00,WUHU21623XXSP,2013-09-05 12:56:00,
2013-09-05 06:01:00,57.6,38.0,30.10,SSE,157,0.0,0.0,48,0.00,,,0.00,WUHU21623XXSP,2013-09-05 13:01:00,
2013-09-05 06:09:00,57.0,38.1,30.10,ENE,67,0.0,0.0,49,0.00,,,0.00,WUHU21623XXSP,2013-09-05 13:09:00,
2013-09-05 06:14:00,56.8,38.1,30.11,ENE,67,0.0,0.0,49,0.00,,,0.00,WUHU21623XXSP,2013-09-05 13:14:00,
2013-09-05 06:19:00,56.8,37.9,30.11,ESE,112,0.0,0.0,49,0.00,,,0.00,WUHU21623XXSP,2013-09-05 13:19:00,
2013-09-05 06:26:00,56.8,38.5,30.10,SSE,157,0.0,0.0,50,0.00,,,0.00,WUHU21623XXSP,2013-09-05 13:26:00,
2013-09-05 06:31:00,56.7,38.3,30.11,South,180,1.6,1.6,50,0.00,,,0.00,WUHU21623XXSP,2013-09-05 13:31:00,
2013-09-05 06:36:00,56.5,38.1,30.11,ENE,67,0.0,1.6,50,0.00,,,0.00,WUHU21623XXSP,2013-09-05 13:36:00,
2013-09-05 06:41:00,56.5,38.1,30.11,SSE,157,0.0,0.0,50,0.00,,,0.00,WUHU21623XXSP,2013-09-05 13:41:00,
2013-09-05 06:56:00,56.3,38.4,30.11,NNE,22,0.0,0.0,51,0.00,,,0.00,WUHU21623XXSP,2013-09-05 13:56:00,
2013-09-05 07:01:00,56.3,38.4,30.11,NNE,22,0.0,0.0,51,0.00,,,0.00,WUHU21623XXSP,2013-09-05 14:01:00,
2013-09-05 07:06:00,56.1,38.2,30.12,West,270,0.0,0.0,51,0.00,,,0.00,WUHU21623XXSP,2013-09-05 14:06:00,
2013-09-05 07:12:00,56.1,38.2,30.11,South,180,0.0,0.0,51,0.00,,,0.00,WUHU21623XXSP,2013-09-05 14:12:00,
2013-09-05 07:17:00,55.9,38.0,30.11,South,180,0.0,0.0,51,0.00,,,0.00,WUHU21623XXSP,2013-09-05 14:17:00,
2013-09-05 07:22:00,55.9,38.0,30.11,SSE,157,0.0,0.0,51,0.00,,,0.00,WUHU21623XXSP,2013-09-05 14:22:00,
2013-09-05 07:34:00,55.9,38.5,30.11,ESE,112,0.0,0.0,52,0.00,,,0.00,WUHU21623XXSP,2013-09-05 14:34:00,
2013-09-05 07:43:00,56.1,38.7,30.11,SSE,157,0.0,0.0,52,0.00,,,0.00,WUHU21623XXSP,2013-09-05 14:43:00,
2013-09-05 07:48:00,56.3,39.3,30.12,East,90,0.0,0.0,53,0.00,,,0.00,WUHU21623XXSP,2013-09-05 14:48:00,
2013-09-05 07:56:00,57.0,40.5,30.11,SSE,157,0.0,0.0,54,0.00,,,0.00,WUHU21623XXSP,2013-09-05 14:56:00,
2013-09-05 08:01:00,57.7,41.7,30.11,SE,135,0.0,0.0,55,0.00,,,0.00,WUHU21623XXSP,2013-09-05 15:01:00,
2013-09-05 08:08:00,59.0,42.3,30.11,South,180,0.0,0.0,54,0.00,,,0.00,WUHU21623XXSP,2013-09-05 15:08:00,
2013-09-05 08:13:00,59.5,42.8,30.10,South,180,0.0,0.0,54,0.00,,,0.00,WUHU21623XXSP,2013-09-05 15:13:00,
2013-09-05 08:18:00,60.1,43.2,30.11,SE,135,0.0,0.0,54,0.00,,,0.00,WUHU21623XXSP,2013-09-05 15:18:00,
2013-09-05 08:23:00,60.4,43.7,30.10,SE,135,0.0,0.0,54,0.00,,,0.00,WUHU21623XXSP,2013-09-05 15:23:00,
2013-09-05 08:40:00,62.4,45.0,30.10,South,180,3.8,3.8,53,0.00,,,0.00,WUHU21623XXSP,2013-09-05 15:40:00,
2013-09-05 08:46:00,62.8,45.3,30.10,SSE,157,0.0,3.8,54,0.00,,,0.00,WUHU21623XXSP,2013-09-05 15:46:00,
2013-09-05 08:51:00,64.0,46.5,30.11,ESE,112,0.0,0.0,53,0.00,,,0.00,WUHU21623XXSP,2013-09-05 15:51:00,
2013-09-05 08:58:00,64.8,47.1,30.10,SE,135,0.0,0.0,53,0.00,,,0.00,WUHU21623XXSP,2013-09-05 15:58:00,
2013-09-05 09:08:00,66.4,48.3,30.10,ESE,112,0.0,0.0,52,0.00,,,0.00,WUHU21623XXSP,2013-09-05 16:08:00,
2013-09-05 09:13:00,66.9,48.6,30.10,SE,135,0.0,0.0,52,0.00,,,0.00,WUHU21623XXSP,2013-09-05 16:13:00,
2013-09-05 09:18:00,67.6,48.9,30.10,SSW,202,2.5,2.5,51,0.00,,,0.00,WUHU21623XXSP,2013-09-05 16:18:00,
2013-09-05 09:25:00,68.7,48.8,30.09,SE,135,1.3,2.5,49,0.00,,,0.00,WUHU21623XXSP,2013-09-05 16:25:00,
2013-09-05 09:30:00,69.4,48.8,30.09,SSE,157,2.5,2.5,48,0.00,,,0.00,WUHU21623XXSP,2013-09-05 16:30:00,
2013-09-05 09:35:00,69.6,48.4,30.09,East,90,0.0,2.5,47,0.00,,,0.00,WUHU21623XXSP,2013-09-05 16:35:00,
2013-09-05 09:40:00,70.5,48.6,30.09,East,90,0.0,2.9,46,0.00,,,0.00,WUHU21623XXSP,2013-09-05 16:40:00,
2013-09-05 09:45:00,70.9,48.8,30.09,SSW,202,1.8,2.9,45,0.00,,,0.00,WUHU21623XXSP,2013-09-05 16:45:00,
2013-09-05 09:50:00,71.2,47.5,30.09,SSE,157,2.5,2.5,43,0.00,,,0.00,WUHU21623XXSP,2013-09-05 16:50:00,
2013-09-05 10:00:00,72.1,47.7,30.09,ESE,112,2.2,4.5,42,0.00,,,0.00,WUHU21623XXSP,2013-09-05 17:00:00,
2013-09-05 10:06:00,72.9,47.2,30.09,SSE,157,11.2,11.2,40,0.00,,,0.00,WUHU21623XXSP,2013-09-05 17:06:00,
2013-09-05 10:17:00,73.9,47.4,30.09,East,90,2.0,2.0,39,0.00,,,0.00,WUHU21623XXSP,2013-09-05 17:17:00,
2013-09-05 10:23:00,74.3,47.0,30.09,SE,135,11.9,11.9,38,0.00,,,0.00,WUHU21623XXSP,2013-09-05 17:23:00,
2013-09-05 10:34:00,75.0,46.9,30.10,SE,135,0.0,0.0,37,0.00,,,0.00,WUHU21623XXSP,2013-09-05 17:34:00,
2013-09-05 10:40:00,75.4,47.2,30.10,East,90,6.5,6.5,37,0.00,,,0.00,WUHU21623XXSP,2013-09-05 17:40:00,
2013-09-05 10:49:00,75.6,47.3,30.09,SE,135,4.0,6.5,37,0.00,,,0.00,WUHU21623XXSP,2013-09-05 17:49:00,
2013-09-05 10:57:00,75.9,46.9,30.09,South,180,4.5,4.5,36,0.00,,,0.00,WUHU21623XXSP,2013-09-05 17:57:00,
2013-09-05 11:06:00,76.1,46.3,30.10,SSE,157,10.5,10.5,35,0.00,,,0.00,WUHU21623XXSP,2013-09-05 18:06:00,
2013-09-05 11:11:00,76.5,45.9,30.09,SE,135,0.0,10.5,34,0.00,,,0.00,WUHU21623XXSP,2013-09-05 18:11:00,
2013-09-05 11:17:00,76.8,47.0,30.09,WNW,292,0.0,0.0,35,0.00,,,0.00,WUHU21623XXSP,2013-09-05 18:17:00,
2013-09-05 11:23:00,77.4,47.4,30.09,SSE,157,5.1,5.1,35,0.00,,,0.00,WUHU21623XXSP,2013-09-05 18:23:00,
2013-09-05 11:28:00,77.5,47.6,30.09,ESE,112,0.9,5.1,34,0.00,,,0.00,WUHU21623XXSP,2013-09-05 18:28:00,
2013-09-05 11:33:00,77.9,46.3,30.09,SSE,157,7.4,7.4,33,0.00,,,0.00,WUHU21623XXSP,2013-09-05 18:33:00,
2013-09-05 11:38:00,78.3,46.7,30.09,SE,135,0.0,7.4,33,0.00,,,0.00,WUHU21623XXSP,2013-09-05 18:38:00,
2013-09-05 11:44:00,78.6,46.2,30.09,SE,135,0.0,0.0,32,0.00,,,0.00,WUHU21623XXSP,2013-09-05 18:44:00,
2013-09-05 11:53:00,79.0,46.5,30.09,ESE,112,10.3,10.3,32,0.00,,,0.00,WUHU21623XXSP,2013-09-05 18:53:00,
2013-09-05 11:58:00,79.3,46.0,30.09,SE,135,5.4,10.3,31,0.00,,,0.00,WUHU21623XXSP,2013-09-05 18:58:00,
2013-09-05 12:06:00,79.7,46.4,30.09,SE,135,13.4,13.4,31,0.00,,,0.00,WUHU21623XXSP,2013-09-05 19:06:00,
2013-09-05 12:11:00,79.7,46.4,30.09,East,90,7.8,13.4,31,0.00,,,0.00,WUHU21623XXSP,2013-09-05 19:11:00,
2013-09-05 12:16:00,79.9,46.5,30.09,South,180,8.1,8.1,31,0.00,,,0.00,WUHU21623XXSP,2013-09-05 19:16:00,
2013-09-05 12:25:00,80.2,46.9,30.09,East,90,0.0,0.0,31,0.00,,,0.00,WUHU21623XXSP,2013-09-05 19:25:00,
2013-09-05 12:32:00,80.4,47.0,30.09,SE,135,4.9,4.9,31,0.00,,,0.00,WUHU21623XXSP,2013-09-05 19:32:00,
2013-09-05 12:37:00,80.8,46.5,30.09,SE,135,4.5,4.9,30,0.00,,,0.00,WUHU21623XXSP,2013-09-05 19:37:00,
2013-09-05 12:42:00,81.0,47.5,30.09,WSW,247,0.0,4.5,31,0.00,,,0.00,WUHU21623XXSP,2013-09-05 19:42:00,
2013-09-05 12:49:00,81.1,46.8,30.09,South,180,3.6,14.8,30,0.00,,,0.00,WUHU21623XXSP,2013-09-05 19:49:00,
2013-09-05 12:54:00,81.3,47.0,30.09,ESE,112,2.0,3.6,30,0.00,,,0.00,WUHU21623XXSP,2013-09-05 19:54:00,
2013-09-05 13:04:00,81.7,47.3,30.09,SE,135,7.8,7.8,30,0.00,,,0.00,WUHU21623XXSP,2013-09-05 20:04:00,
2013-09-05 13:10:00,82.2,47.7,30.08,South,180,12.8,12.8,30,0.00,,,0.00,WUHU21623XXSP,2013-09-05 20:10:00,
2013-09-05 13:19:00,82.6,46.9,30.09,South,180,8.5,12.8,29,0.00,,,0.00,WUHU21623XXSP,2013-09-05 20:19:00,
2013-09-05 13:25:00,82.6,46.9,30.09,SSE,157,8.9,8.9,29,0.00,,,0.00,WUHU21623XXSP,2013-09-05 20:25:00,
2013-09-05 13:34:00,82.9,46.2,30.09,SSW,202,2.0,8.9,28,0.00,,,0.00,WUHU21623XXSP,2013-09-05 20:34:00,
2013-09-05 13:39:00,83.1,46.4,30.09,SSE,157,9.6,9.6,28,0.00,,,0.00,WUHU21623XXSP,2013-09-05 20:39:00,
2013-09-05 13:49:00,83.5,45.6,30.09,WSW,247,6.7,6.7,27,0.00,,,0.00,WUHU21623XXSP,2013-09-05 20:49:00,
2013-09-05 13:59:00,83.7,45.8,30.09,ESE,112,3.4,3.4,27,0.00,,,0.00,WUHU21623XXSP,2013-09-05 20:59:00,
2013-09-05 14:04:00,83.7,45.8,30.08,SW,225,9.8,9.8,27,0.00,,,0.00,WUHU21623XXSP,2013-09-05 21:04:00,
2013-09-05 14:09:00,83.8,46.0,30.09,SE,135,6.7,9.8,27,0.00,,,0.00,WUHU21623XXSP,2013-09-05 21:09:00,
2013-09-05 14:16:00,83.8,44.9,30.08,SE,135,2.0,6.7,26,0.00,,,0.00,WUHU21623XXSP,2013-09-05 21:16:00,
2013-09-05 14:23:00,83.5,44.6,30.09,SW,225,3.8,3.8,26,0.00,,,0.00,WUHU21623XXSP,2013-09-05 21:23:00,
2013-09-05 14:31:00,83.7,44.7,30.09,South,180,13.0,13.0,26,0.00,,,0.00,WUHU21623XXSP,2013-09-05 21:31:00,
2013-09-05 14:40:00,83.1,44.3,30.08,SE,135,5.8,13.0,26,0.00,,,0.00,WUHU21623XXSP,2013-09-05 21:40:00,
2013-09-05 14:46:00,83.1,44.3,30.08,South,180,4.5,5.8,26,0.00,,,0.00,WUHU21623XXSP,2013-09-05 21:46:00,
2013-09-05 14:51:00,83.1,44.3,30.08,South,180,8.9,8.9,26,0.00,,,0.00,WUHU21623XXSP,2013-09-05 21:51:00,
2013-09-05 14:56:00,83.1,44.3,30.08,SE,135,9.2,9.2,26,0.00,,,0.00,WUHU21623XXSP,2013-09-05 21:56:00,
2013-09-05 15:01:00,83.1,44.3,30.08,South,180,10.5,10.5,26,0.00,,,0.00,WUHU21623XXSP,2013-09-05 22:01:00,
2013-09-05 15:06:00,83.1,44.3,30.08,South,180,0.9,10.5,26,0.00,,,0.00,WUHU21623XXSP,2013-09-05 22:06:00,
2013-09-05 15:12:00,83.3,44.4,30.08,SE,135,6.7,6.7,26,0.00,,,0.00,WUHU21623XXSP,2013-09-05 22:12:00,
2013-09-05 15:20:00,83.3,44.4,30.08,SE,135,4.7,6.7,26,0.00,,,0.00,WUHU21623XXSP,2013-09-05 22:20:00,
2013-09-05 15:25:00,83.1,43.4,30.08,SSE,157,1.3,4.7,25,0.00,,,0.00,WUHU21623XXSP,2013-09-05 22:25:00,
2013-09-05 15:31:00,83.1,43.2,30.08,SW,225,3.4,3.4,25,0.00,,,0.00,WUHU21623XXSP,2013-09-05 22:31:00,
2013-09-05 15:40:00,82.8,42.9,30.08,SE,135,6.7,6.7,25,0.00,,,0.00,WUHU21623XXSP,2013-09-05 22:40:00,
2013-09-05 15:50:00,82.6,41.7,30.07,SSE,157,5.4,5.4,24,0.00,,,0.00,WUHU21623XXSP,2013-09-05 22:50:00,
2013-09-05 15:56:00,82.4,41.7,30.08,SSW,202,2.2,5.4,25,0.00,,,0.00,WUHU21623XXSP,2013-09-05 22:56:00,
2013-09-05 16:01:00,82.6,42.8,30.07,SSW,202,9.4,9.4,25,0.00,,,0.00,WUHU21623XXSP,2013-09-05 23:01:00,
2013-09-05 16:06:00,82.2,41.4,30.07,South,180,7.2,9.4,24,0.00,,,0.00,WUHU21623XXSP,2013-09-05 23:06:00,
2013-09-05 16:11:00,82.2,41.4,30.07,SSE,157,6.5,7.2,24,0.00,,,0.00,WUHU21623XXSP,2013-09-05 23:11:00,
2013-09-05 16:16:00,82.0,41.3,30.08,SSE,157,5.1,6.5,24,0.00,,,0.00,WUHU21623XXSP,2013-09-05 23:16:00,
2013-09-05 16:21:00,82.0,41.3,30.07,SSE,157,17.0,17.0,24,0.00,,,0.00,WUHU21623XXSP,2013-09-05 23:21:00,
2013-09-05 16:27:00,81.7,41.0,30.07,SSW,202,3.4,17.0,24,0.00,,,0.00,WUHU21623XXSP,2013-09-05 23:27:00,
2013-09-05 16:32:00,81.7,41.0,30.07,SW,225,4.0,4.0,24,0.00,,,0.00,WUHU21623XXSP,2013-09-05 23:32:00,
2013-09-05 16:37:00,81.5,40.9,30.07,South,180,2.2,4.0,24,0.00,,,0.00,WUHU21623XXSP,2013-09-05 23:37:00,
2013-09-05 16:44:00,81.3,40.7,30.07,SSW,202,8.9,8.9,24,0.00,,,0.00,WUHU21623XXSP,2013-09-05 23:44:00,
2013-09-05 16:49:00,81.1,40.6,30.07,SSW,202,10.7,10.7,24,0.00,,,0.00,WUHU21623XXSP,2013-09-05 23:49:00,
2013-09-05 16:55:00,81.0,40.4,30.06,SE,135,10.3,10.7,24,0.00,,,0.00,WUHU21623XXSP,2013-09-05 23:55:00,
2013-09-05 17:01:00,80.6,40.1,30.07,SSE,157,15.7,15.7,24,0.00,,,0.00,WUHU21623XXSP,2013-09-06 00:01:00,
2013-09-05 17:08:00,80.4,40.0,30.07,SSW,202,7.6,15.7,24,0.00,,,0.00,WUHU21623XXSP,2013-09-06 00:08:00,
2013-09-05 17:16:00,80.4,40.0,30.06,SSE,157,6.7,7.6,24,0.00,,,0.00,WUHU21623XXSP,2013-09-06 00:16:00,
2013-09-05 17:21:00,80.2,39.8,30.07,SSW,202,11.9,11.9,24,0.00,,,0.00,WUHU21623XXSP,2013-09-06 00:21:00,
2013-09-05 17:27:00,80.1,39.6,30.07,SSE,157,7.2,11.9,24,0.00,,,0.00,WUHU21623XXSP,2013-09-06 00:27:00,
2013-09-05 17:32:00,79.9,39.5,30.07,SSE,157,2.2,11.6,24,0.00,,,0.00,WUHU21623XXSP,2013-09-06 00:32:00,
2013-09-05 17:38:00,79.7,39.3,30.07,South,180,2.7,2.7,24,0.00,,,0.00,WUHU21623XXSP,2013-09-06 00:38:00,
2013-09-05 17:43:00,79.7,39.3,30.07,ESE,112,0.0,2.7,24,0.00,,,0.00,WUHU21623XXSP,2013-09-06 00:43:00,
2013-09-05 17:48:00,79.7,39.3,30.07,SSE,157,0.9,0.9,24,0.00,,,0.00,WUHU21623XXSP,2013-09-06 00:48:00,
2013-09-05 17:53:00,79.5,39.2,30.07,SSE,157,1.1,1.1,24,0.00,,,0.00,WUHU21623XXSP,2013-09-06 00:53:00,
2013-09-05 17:58:00,79.5,39.2,30.07,ESE,112,0.0,1.1,24,0.00,,,0.00,WUHU21623XXSP,2013-09-06 00:58:00,
2013-09-05 18:03:00,79.3,39.0,30.07,South,180,4.0,4.0,24,0.00,,,0.00,WUHU21623XXSP,2013-09-06 01:03:00,
2013-09-05 18:14:00,79.0,38.7,30.07,South,180,8.9,8.9,24,0.00,,,0.00,WUHU21623XXSP,2013-09-06 01:14:00,
2013-09-05 18:20:00,78.6,38.4,30.07,SSE,157,4.7,8.9,24,0.00,,,0.00,WUHU21623XXSP,2013-09-06 01:20:00,
2013-09-05 18:25:00,78.4,38.4,30.07,SE,135,0.0,4.7,24,0.00,,,0.00,WUHU21623XXSP,2013-09-06 01:25:00,
2013-09-05 18:33:00,78.1,37.9,30.07,SSW,202,8.7,8.7,24,0.00,,,0.00,WUHU21623XXSP,2013-09-06 01:33:00,
2013-09-05 18:38:00,77.9,37.8,30.08,ESE,112,0.0,8.7,24,0.00,,,0.00,WUHU21623XXSP,2013-09-06 01:38:00,
2013-09-05 18:44:00,77.7,37.7,30.07,SSW,202,2.0,2.0,24,0.00,,,0.00,WUHU21623XXSP,2013-09-06 01:44:00,
2013-09-05 18:49:00,77.5,37.5,30.07,NW,315,3.1,3.1,24,0.00,,,0.00,WUHU21623XXSP,2013-09-06 01:49:00,
2013-09-05 18:57:00,76.8,38.0,30.08,North,0,0.0,3.1,25,0.00,,,0.00,WUHU21623XXSP,2013-09-06 01:57:00,
2013-09-05 19:07:00,76.1,37.3,30.08,South,180,0.0,0.0,25,0.00,,,0.00,WUHU21623XXSP,2013-09-06 02:07:00,
2013-09-05 19:18:00,75.4,36.7,30.08,ESE,112,0.0,0.0,25,0.00,,,0.00,WUHU21623XXSP,2013-09-06 02:18:00,
2013-09-05 19:31:00,73.9,36.7,30.09,SSE,157,0.0,0.0,26,0.00,,,0.00,WUHU21623XXSP,2013-09-06 02:31:00,
2013-09-05 19:36:00,73.8,36.5,30.08,South,180,0.0,0.0,26,0.00,,,0.00,WUHU21623XXSP,2013-09-06 02:36:00,
2013-09-05 19:44:00,73.2,35.9,30.09,WNW,292,0.0,0.0,26,0.00,,,0.00,WUHU21623XXSP,2013-09-06 02:44:00,
2013-09-05 19:52:00,72.3,37.2,30.09,WNW,292,0.0,0.0,28,0.00,,,0.00,WUHU21623XXSP,2013-09-06 02:52:00,
2013-09-05 19:57:00,72.0,37.0,30.09,ESE,112,0.0,0.0,28,0.00,,,0.00,WUHU21623XXSP,2013-09-06 02:57:00,
2013-09-05 20:05:00,71.4,36.4,30.10,South,180,0.0,0.0,28,0.00,,,0.00,WUHU21623XXSP,2013-09-06 03:05:00,
2013-09-05 20:16:00,70.7,36.8,30.10,SE,135,0.0,0.0,29,0.00,,,0.00,WUHU21623XXSP,2013-09-06 03:16:00,
2013-09-05 20:22:00,70.3,36.5,30.10,ESE,112,0.0,0.0,29,0.00,,,0.00,WUHU21623XXSP,2013-09-06 03:22:00,
2013-09-05 20:33:00,69.6,36.9,30.10,ENE,67,0.0,0.0,30,0.00,,,0.00,WUHU21623XXSP,2013-09-06 03:33:00,
2013-09-05 20:38:00,69.4,36.7,30.10,NE,45,0.0,0.0,30,0.00,,,0.00,WUHU21623XXSP,2013-09-06 03:38:00,
2013-09-05 20:43:00,69.1,36.4,30.10,ENE,67,0.0,0.0,30,0.00,,,0.00,WUHU21623XXSP,2013-09-06 03:43:00,
2013-09-05 20:50:00,68.5,35.9,30.11,SE,135,0.0,0.0,30,0.00,,,0.00,WUHU21623XXSP,2013-09-06 03:50:00,
2013-09-05 20:55:00,68.2,36.3,30.11,East,90,0.0,0.0,31,0.00,,,0.00,WUHU21623XXSP,2013-09-06 03:55:00,
2013-09-05 21:01:00,67.6,35.9,30.11,South,180,0.0,0.0,31,0.00,,,0.00,WUHU21623XXSP,2013-09-06 04:01:00,
2013-09-05 21:03:00,67.6,35.9,30.11,South,180,0.0,0.0,31,0.00,,,0.00,WUHU21623XXSP,2013-09-06 04:03:00,
2013-09-05 21:08:00,67.3,35.6,30.11,ESE,112,0.0,0.0,31,0.00,,,0.00,WUHU21623XXSP,2013-09-06 04:08:00,
2013-09-05 21:13:00,66.9,36.0,30.11,ESE,112,0.0,0.0,32,0.00,,,0.00,WUHU21623XXSP,2013-09-06 04:13:00,
2013-09-05 21:18:00,66.7,35.9,30.12,SE,135,0.0,0.0,32,0.00,,,0.00,WUHU21623XXSP,2013-09-06 04:18:00,
2013-09-05 21:23:00,66.4,35.9,30.12,SE,135,0.0,0.0,32,0.00,,,0.00,WUHU21623XXSP,2013-09-06 04:23:00,
2013-09-05 21:33:00,66.0,36.0,30.12,SSE,157,0.0,0.0,33,0.00,,,0.00,WUHU21623XXSP,2013-09-06 04:33:00,
2013-09-05 21:39:00,65.7,35.7,30.12,ESE,112,0.0,0.0,33,0.00,,,0.00,WUHU21623XXSP,2013-09-06 04:39:00,
2013-09-05 21:44:00,65.5,35.5,30.12,ESE,112,0.0,0.0,33,0.00,,,0.00,WUHU21623XXSP,2013-09-06 04:44:00,
2013-09-05 21:50:00,65.3,36.0,30.12,SSE,157,0.0,0.0,34,0.00,,,0.00,WUHU21623XXSP,2013-09-06 04:50:00,
2013-09-05 21:55:00,65.1,35.9,30.12,SE,135,0.0,0.0,34,0.00,,,0.00,WUHU21623XXSP,2013-09-06 04:55:00,
2013-09-05 22:01:00,65.1,35.9,30.12,SSW,202,0.0,0.0,34,0.00,,,0.00,WUHU21623XXSP,2013-09-06 05:01:00,
2013-09-05 22:06:00,64.9,35.7,30.12,SW,225,0.0,0.0,34,0.00,,,0.00,WUHU21623XXSP,2013-09-06 05:06:00,
2013-09-05 22:11:00,64.9,36.4,30.12,ESE,112,0.0,0.0,35,0.00,,,0.00,WUHU21623XXSP,2013-09-06 05:11:00,
2013-09-05 22:16:00,64.8,36.3,30.12,South,180,0.0,0.0,35,0.00,,,0.00,WUHU21623XXSP,2013-09-06 05:16:00,
2013-09-05 22:21:00,64.9,37.2,30.12,SSE,157,0.0,0.0,36,0.00,,,0.00,WUHU21623XXSP,2013-09-06 05:21:00,
2013-09-05 22:26:00,64.9,37.2,30.12,ESE,112,0.0,0.0,36,0.00,,,0.00,WUHU21623XXSP,2013-09-06 05:26:00,
2013-09-05 22:31:00,64.9,37.9,30.12,SSE,157,0.0,0.0,37,0.00,,,0.00,WUHU21623XXSP,2013-09-06 05:31:00,
2013-09-05 22:41:00,64.6,38.3,30.12,ESE,112,0.0,0.0,38,0.00,,,0.00,WUHU21623XXSP,2013-09-06 05:41:00,
2013-09-05 22:48:00,64.2,38.7,30.12,East,90,0.0,0.0,39,0.00,,,0.00,WUHU21623XXSP,2013-09-06 05:48:00,
2013-09-05 22:58:00,64.0,39.2,30.12,East,90,0.0,0.0,40,0.00,,,0.00,WUHU21623XXSP,2013-09-06 05:58:00,
2013-09-05 23:03:00,64.0,39.2,30.12,ESE,112,0.0,0.0,40,0.00,,,0.00,WUHU21623XXSP,2013-09-06 06:03:00,
2013-09-05 23:09:00,63.7,39.5,30.12,NNE,22,0.0,0.0,41,0.00,,,0.00,WUHU21623XXSP,2013-09-06 06:09:00,
2013-09-05 23:14:00,63.3,39.2,30.12,ESE,112,0.0,0.0,41,0.00,,,0.00,WUHU21623XXSP,2013-09-06 06:14:00,
2013-09-05 23:20:00,63.1,39.0,30.12,East,90,0.0,0.0,41,0.00,,,0.00,WUHU21623XXSP,2013-09-06 06:20:00,
2013-09-05 23:28:00,62.8,38.7,30.12,ENE,67,0.0,0.0,41,0.00,,,0.00,WUHU21623XXSP,2013-09-06 06:28:00,
2013-09-05 23:33:00,62.6,38.7,30.12,ENE,67,0.0,0.0,42,0.00,,,0.00,WUHU21623XXSP,2013-09-06 06:33:00,
2013-09-05 23:46:00,62.2,38.8,30.13,WNW,292,0.0,0.0,42,0.00,,,0.00,WUHU21623XXSP,2013-09-06 06:46:00,
2013-09-05 23:51:00,62.1,38.6,30.13,NW,315,0.0,0.0,42,0.00,,,0.00,WUHU21623XXSP,2013-09-06 06:51:00,
2013-09-05 23:56:00,61.7,38.3,30.13,SE,135,0.0,0.0,42,0.00,,,0.00,WUHU21623XXSP,2013-09-06 06:56:00,